Location: Madrid
(40.4000°N, 3.6830°W)
Time: 14:24:53
(UTC+02:00)

ISS - Pass Details

Date: 29 March 2020
Orbit: 416 x 423 km, 51.6° (Epoch: 02 April)

Event Time Altitude Azimuth Distance (km) Brightness Sun altitude
Rises 21:41:24 0° 308° (NW) 2,360 1.4 -12.9°
Reaches altitude 10° 21:44:25 10° 338° (NNW) 1,496 -0.4 -13.5°
Maximum altitude 21:46:05 13° 8° (N) 1,323 -1.1 -13.8°
Drops below altitude 10° 21:47:45 10° 38° (NE) 1,496 -1.2 -14.1°
Enters shadow 21:48:15 - 45° (NE) 1,607 -1.1 -14.2°
